User: anonymous   Login
Location: Bocchiglicro
(39.4167°N, 16.7500°E)
Time: 16:17:23
(UTC+00:00)
Language:

Cosmos-2242 - Orbit

View from above orbital plane
View from above orbital plane
View from above satellite
View from above satellite

Ground track
Ground track

The orbit data is extracted from the following two-line orbital elements,

1 22626U 93024A   21127.73760805  .00000208  00000-0  19730-4 0  9999
2 22626  82.5193 142.1101 0020564  84.7175 275.6389 14.88118272517068
Epoch (UTC): 07 May 2021 17:42:09
Eccentricity: 0.0020564
inclination: 82.5193°
perigee height: 589 km
apogee height: 618 km
right ascension of ascending node: 142.1101°
argument of perigee: 84.7175°
revolutions per day: 14.88118272
mean anomaly at epoch: 275.6389°
orbit number at epoch: 51706

The dashed part of the orbit path shows where the satellite is in the earth's shadow,  

DLR